Starlink 31484

operational
NORAD ID: 59005 Int'l Des: 2024-036 Owner: SPXS Country: US Constellation: starlink
LEOCIRCULAR

Starlink 31484について

説明を読み込み中...

リアルタイム位置

3D地球を読み込み中...

次回通過

高度履歴

Altitude vs Time

uPlot chart will show altitude changes over time

軌道要素

1 59005U 24036H 26036.66806824 .00007486 00000-0 26469-3 0 9996
2 59005 53.1593 226.6444 0000908 97.0622 263.0482 15.30189207110427
Epoch: Feb 5, 2026 • Age: 7 hours

現在のステータス

高度 494.4 km
速度 7.62 km/s
衛星直下点 -53.21°S, 11.52°E
打ち上げ日 Feb 23, 2024
運用期間 1.9 years
タイプ internet

技術仕様

分類 Payload
質量 730.00 kg
乾燥質量 700.00 kg
総質量 730.00 kg
長さ 0.30 m
直径 4.10 m
スパン 29.00 m
形状 Box + pan
製造者 SPXS
バスタイプ Starlink V2M
フェーズステータス In Orbit
所有者/国 SPXS/US

大規模コンステレーション

Loading constellations...